SWA1396 KTPA-KBNA

Flight info

Callsign SWA1396
Flight time 1h 46m
Altitude 30000
Route ENDED2 LACEN BRUTS Q118 THRSR SWFFT3
Aircraft B737/M-SDE2E3FGHIRWXY/LB1

Departure

Time 2026-05-05 14:54
Airport Tampa International Airport (KTPA)

Arrival

Time 2026-05-05 16:40
Airport Nashville International Airport (KBNA)
Time Latitude Longitude Altitude Speed Heading
2026-05-05 14:25 27.97622 -82.53795 28 ft 0 kts 32°
2026-05-05 14:42 27.97620 -82.53796 28 ft 1 kts 33°
2026-05-05 14:42 27.97608 -82.53805 28 ft 2 kts 32°
2026-05-05 14:43 27.97595 -82.53814 28 ft 2 kts 32°
2026-05-05 14:43 27.97583 -82.53824 28 ft 2 kts 34°
2026-05-05 14:43 27.97571 -82.53833 28 ft 1 kts 33°
2026-05-05 14:43 27.97565 -82.53838 28 ft 0 kts 13°
2026-05-05 14:44 27.97559 -82.53836 28 ft 1 kts 316°
2026-05-05 14:44 27.97556 -82.53831 28 ft 0 kts 295°
2026-05-05 14:44 27.97554 -82.53828 28 ft 0 kts 302°
2026-05-05 14:47 27.97571 -82.53860 28 ft 6 kts 298°
2026-05-05 14:47 27.97583 -82.53911 28 ft 7 kts 274°
2026-05-05 14:47 27.97586 -82.53973 28 ft 8 kts 272°
2026-05-05 14:47 27.97576 -82.54042 28 ft 9 kts 233°
2026-05-05 14:48 27.97517 -82.54073 28 ft 10 kts 182°
2026-05-05 14:48 27.97442 -82.54072 28 ft 11 kts 184°
2026-05-05 14:48 27.97358 -82.54076 28 ft 12 kts 181°
2026-05-05 14:48 27.97265 -82.54076 28 ft 13 kts 178°
2026-05-05 14:49 27.97164 -82.54082 28 ft 15 kts 182°
2026-05-05 14:49 27.97053 -82.54086 28 ft 16 kts 181°
2026-05-05 14:49 27.96936 -82.54091 28 ft 17 kts 181°
2026-05-05 14:49 27.96808 -82.54096 28 ft 18 kts 182°
2026-05-05 14:50 27.96671 -82.54102 28 ft 20 kts 181°
2026-05-05 14:50 27.96526 -82.54104 28 ft 20 kts 184°
2026-05-05 14:50 27.96457 -82.54108 28 ft 2 kts 190°
2026-05-05 14:50 27.96434 -82.54120 28 ft 4 kts 219°
2026-05-05 14:51 27.96429 -82.54127 28 ft 0 kts 238°
2026-05-05 14:53 27.96428 -82.54127 28 ft 0 kts 238°
2026-05-05 14:53 27.96419 -82.54184 28 ft 14 kts 282°
2026-05-05 14:53 27.96480 -82.54231 28 ft 8 kts 359°
2026-05-05 14:53 27.96513 -82.54229 28 ft 12 kts
2026-05-05 14:54 27.96980 -82.54206 28 ft 116 kts
2026-05-05 14:54 27.98056 -82.54175 101 ft 185 kts
2026-05-05 14:54 27.99303 -82.54163 636 ft 185 kts
2026-05-05 14:54 28.00650 -82.54180 1111 ft 197 kts
2026-05-05 14:55 28.02064 -82.54234 1578 ft 210 kts
2026-05-05 14:55 28.03595 -82.54327 2214 ft 247 kts 359°
2026-05-05 14:55 28.05301 -82.54444 3263 ft 241 kts 358°
2026-05-05 14:55 28.06989 -82.54542 3732 ft 256 kts 358°
2026-05-05 14:56 28.08744 -82.54617 4815 ft 242 kts 360°
2026-05-05 14:56 28.10306 -82.54668 5895 ft 228 kts 355°
2026-05-05 14:56 28.11978 -82.54911 6203 ft 251 kts 342°
2026-05-05 14:56 28.13424 -82.55904 6972 ft 247 kts 313°
2026-05-05 14:57 28.14536 -82.57476 7240 ft 267 kts 305°
2026-05-05 14:57 28.15645 -82.59224 7652 ft 279 kts 309°
2026-05-05 14:57 28.17050 -82.60681 8465 ft 276 kts 322°
2026-05-05 14:57 28.18633 -82.61916 9072 ft 279 kts 323°
2026-05-05 14:58 28.20197 -82.63297 9402 ft 292 kts 318°
2026-05-05 14:58 28.21820 -82.64750 9978 ft 295 kts 325°
2026-05-05 14:58 28.23529 -82.65816 11070 ft 277 kts 331°
2026-05-05 14:58 28.25299 -82.66807 11412 ft 288 kts 330°
2026-05-05 14:59 28.27088 -82.67921 11620 ft 301 kts 327°
2026-05-05 14:59 28.28907 -82.69201 11819 ft 314 kts 324°
2026-05-05 14:59 28.30798 -82.70628 12116 ft 340 kts 323°
2026-05-05 14:59 28.32730 -82.72124 13403 ft 343 kts 323°
2026-05-05 15:00 28.34684 -82.73636 14687 ft 345 kts 323°
2026-05-05 15:00 28.36004 -82.74654 15496 ft 348 kts 323°
2026-05-05 15:00 28.38702 -82.76676 17093 ft 353 kts 326°
2026-05-05 15:00 28.40887 -82.77935 18289 ft 357 kts 333°
2026-05-05 15:01 28.43257 -82.78804 19307 ft 366 kts 341°
2026-05-05 15:01 28.45748 -82.79378 20337 ft 371 kts 344°
2026-05-05 15:01 28.48312 -82.79833 21289 ft 377 kts 346°
2026-05-05 15:01 28.50921 -82.80243 22224 ft 380 kts 346°
2026-05-05 15:02 28.53527 -82.80640 23191 ft 382 kts 346°
2026-05-05 15:02 28.56157 -82.81042 24191 ft 383 kts 346°
2026-05-05 15:02 28.58760 -82.81448 25366 ft 379 kts 346°
2026-05-05 15:02 28.61321 -82.81875 26733 ft 368 kts 345°
2026-05-05 15:03 28.63811 -82.82310 27843 ft 363 kts 345°
2026-05-05 15:03 28.66308 -82.82760 28773 ft 362 kts 345°
2026-05-05 15:03 28.68780 -82.83209 29625 ft 361 kts 345°
2026-05-05 15:03 28.71281 -82.83667 30005 ft 359 kts 344°
2026-05-05 15:04 28.76198 -82.84560 30071 ft 354 kts 345°
2026-05-05 15:04 28.81075 -82.85448 30072 ft 356 kts 344°
2026-05-05 15:05 28.88376 -82.86772 30069 ft 353 kts 344°
2026-05-05 15:06 28.93294 -82.87665 30070 ft 355 kts 344°
2026-05-05 15:06 28.98162 -82.88547 30071 ft 354 kts 345°
2026-05-05 15:07 29.03001 -82.89425 30071 ft 353 kts 344°
2026-05-05 15:07 29.07867 -82.90307 30070 ft 353 kts 344°
2026-05-05 15:08 29.12734 -82.91193 30065 ft 352 kts 344°
2026-05-05 15:08 29.17584 -82.92078 30053 ft 351 kts 344°
2026-05-05 15:09 29.22406 -82.92956 30050 ft 352 kts 344°
2026-05-05 15:09 29.27231 -82.93832 30051 ft 351 kts 344°
2026-05-05 15:10 29.32064 -82.94714 30052 ft 350 kts 345°
2026-05-05 15:10 29.36845 -82.95588 30052 ft 348 kts 344°
2026-05-05 15:11 29.41641 -82.96471 30051 ft 349 kts 344°
2026-05-05 15:11 29.46445 -82.97350 30052 ft 349 kts 345°
2026-05-05 15:12 29.51209 -82.98306 30056 ft 345 kts 341°
2026-05-05 15:12 29.55692 -83.00075 30059 ft 340 kts 333°
2026-05-05 15:13 29.60044 -83.02216 30060 ft 339 kts 332°
2026-05-05 15:13 29.64400 -83.04348 30064 ft 339 kts 333°
2026-05-05 15:14 29.68743 -83.06441 30061 ft 339 kts 332°
2026-05-05 15:14 29.73105 -83.08530 30061 ft 338 kts 333°
2026-05-05 15:15 29.77470 -83.10616 30058 ft 338 kts 333°
2026-05-05 15:15 29.81812 -83.12693 30057 ft 339 kts 333°
2026-05-05 15:16 29.86197 -83.14794 30054 ft 340 kts 333°
2026-05-05 15:16 29.90571 -83.16892 30051 ft 340 kts 333°
2026-05-05 15:17 29.94924 -83.18979 30052 ft 340 kts 332°
2026-05-05 15:17 29.99283 -83.21072 30050 ft 338 kts 332°
2026-05-05 15:18 30.03632 -83.23161 30055 ft 338 kts 333°
2026-05-05 15:18 30.07982 -83.25253 30049 ft 339 kts 332°
2026-05-05 15:19 30.12334 -83.27351 30056 ft 339 kts 332°
2026-05-05 15:19 30.16674 -83.29439 30056 ft 338 kts 333°
2026-05-05 15:20 30.21008 -83.31532 30057 ft 337 kts 333°
2026-05-05 15:20 30.25333 -83.33620 30055 ft 336 kts 332°
2026-05-05 15:21 30.29637 -83.35697 30057 ft 339 kts 333°
2026-05-05 15:21 30.33979 -83.37796 30058 ft 337 kts 332°
2026-05-05 15:22 30.38299 -83.39887 30058 ft 334 kts 333°
2026-05-05 15:22 30.42615 -83.41975 30058 ft 337 kts 332°
2026-05-05 15:23 30.46919 -83.44063 30060 ft 336 kts 332°
2026-05-05 15:23 30.51257 -83.46165 30060 ft 338 kts 332°
2026-05-05 15:24 30.55581 -83.48264 30063 ft 336 kts 333°
2026-05-05 15:24 30.59862 -83.50345 30066 ft 335 kts 332°
2026-05-05 15:25 30.64171 -83.52444 30067 ft 334 kts 332°
2026-05-05 15:25 30.68473 -83.54536 30068 ft 334 kts 332°
2026-05-05 15:26 30.72763 -83.56626 30065 ft 335 kts 332°
2026-05-05 15:26 30.77043 -83.58714 30067 ft 334 kts 332°
2026-05-05 15:27 30.81334 -83.60813 30061 ft 335 kts 332°
2026-05-05 15:27 30.85634 -83.62916 30070 ft 336 kts 333°
2026-05-05 15:28 30.89937 -83.65020 30073 ft 333 kts 332°
2026-05-05 15:28 30.94226 -83.67121 30075 ft 335 kts 332°
2026-05-05 15:29 30.98533 -83.69235 30076 ft 336 kts 332°
2026-05-05 15:29 31.02800 -83.71330 30076 ft 333 kts 332°
2026-05-05 15:30 31.07106 -83.73443 30080 ft 335 kts 332°
2026-05-05 15:30 31.11385 -83.75545 30080 ft 335 kts 332°
2026-05-05 15:31 31.15685 -83.77661 30080 ft 333 kts 332°
2026-05-05 15:31 31.19953 -83.79765 30075 ft 334 kts 332°
2026-05-05 15:32 31.24242 -83.81885 30073 ft 334 kts 332°
2026-05-05 15:32 31.28543 -83.84007 30068 ft 334 kts 332°
2026-05-05 15:33 31.32811 -83.86118 30063 ft 333 kts 332°
2026-05-05 15:33 31.37089 -83.88237 30066 ft 335 kts 332°
2026-05-05 15:34 31.41359 -83.90352 30069 ft 334 kts 332°
2026-05-05 15:34 31.45636 -83.92469 30066 ft 334 kts 332°
2026-05-05 15:35 31.49880 -83.94575 30068 ft 334 kts 332°
2026-05-05 15:35 31.54330 -83.96242 30066 ft 339 kts 340°
2026-05-05 15:36 31.58984 -83.97332 30067 ft 340 kts 342°
2026-05-05 15:36 31.63671 -83.98340 30068 ft 341 kts 342°
2026-05-05 15:37 31.68312 -83.99347 30063 ft 340 kts 342°
2026-05-05 15:37 31.73002 -84.00380 30069 ft 341 kts 342°
2026-05-05 15:38 31.77615 -84.01402 30064 ft 339 kts 342°
2026-05-05 15:38 31.82292 -84.02450 30065 ft 343 kts 342°
2026-05-05 15:39 31.86954 -84.03487 30062 ft 341 kts 342°
2026-05-05 15:39 31.91597 -84.04522 30059 ft 339 kts 342°
2026-05-05 15:40 31.96226 -84.05559 30062 ft 340 kts 342°
2026-05-05 15:40 32.00864 -84.06596 30064 ft 340 kts 342°
2026-05-05 15:41 32.05516 -84.07639 30067 ft 340 kts 342°
2026-05-05 15:41 32.10169 -84.08682 30061 ft 339 kts 342°
2026-05-05 15:42 32.14790 -84.09720 30073 ft 339 kts 342°
2026-05-05 15:42 32.19415 -84.10759 30064 ft 339 kts 342°
2026-05-05 15:43 32.24075 -84.11808 30068 ft 340 kts 342°
2026-05-05 15:43 32.28708 -84.12850 30067 ft 339 kts 342°
2026-05-05 15:44 32.33335 -84.13892 30063 ft 339 kts 342°
2026-05-05 15:44 32.37846 -84.14915 30067 ft 338 kts 342°
2026-05-05 15:45 32.42470 -84.15960 30064 ft 338 kts 342°
2026-05-05 15:45 32.47102 -84.17004 30066 ft 339 kts 342°
2026-05-05 15:46 32.51763 -84.18059 30063 ft 340 kts 341°
2026-05-05 15:46 32.56376 -84.19104 30066 ft 337 kts 342°
2026-05-05 15:47 32.61000 -84.20154 30061 ft 339 kts 342°
2026-05-05 15:47 32.65644 -84.21210 30054 ft 339 kts 341°
2026-05-05 15:48 32.70289 -84.22266 30055 ft 338 kts 342°
2026-05-05 15:48 32.74920 -84.23315 30059 ft 339 kts 341°
2026-05-05 15:49 32.79539 -84.24366 30063 ft 338 kts 341°
2026-05-05 15:49 32.84161 -84.25418 30071 ft 337 kts 341°
2026-05-05 15:50 32.88763 -84.26469 30066 ft 336 kts 341°
2026-05-05 15:50 32.93362 -84.27524 30076 ft 336 kts 342°
2026-05-05 15:51 32.97962 -84.28576 30073 ft 337 kts 341°
2026-05-05 15:51 33.02589 -84.29633 30074 ft 337 kts 342°
2026-05-05 15:52 33.07194 -84.30688 30076 ft 339 kts 341°
2026-05-05 15:52 33.11797 -84.31746 30068 ft 338 kts 342°
2026-05-05 15:53 33.16437 -84.32815 30062 ft 339 kts 341°
2026-05-05 15:53 33.21063 -84.33878 30059 ft 338 kts 341°
2026-05-05 15:54 33.25708 -84.34946 30073 ft 340 kts 341°
2026-05-05 15:54 33.30361 -84.36018 30076 ft 340 kts 341°
2026-05-05 15:55 33.34988 -84.37083 30083 ft 341 kts 341°
2026-05-05 15:55 33.39794 -84.38191 30077 ft 340 kts 341°
2026-05-05 15:56 33.44432 -84.39265 30080 ft 340 kts 341°
2026-05-05 15:56 33.49080 -84.40340 30077 ft 340 kts 341°
2026-05-05 15:57 33.53718 -84.41417 30077 ft 340 kts 341°
2026-05-05 15:57 33.58381 -84.42500 30073 ft 341 kts 341°
2026-05-05 15:58 33.62954 -84.43820 30069 ft 335 kts 333°
2026-05-05 15:58 33.67004 -84.46396 30069 ft 331 kts 323°
2026-05-05 15:59 33.70856 -84.49383 30071 ft 328 kts 323°
2026-05-05 15:59 33.74689 -84.52318 30069 ft 329 kts 324°
2026-05-05 16:00 33.78571 -84.55246 30064 ft 328 kts 324°
2026-05-05 16:00 33.82450 -84.58164 30067 ft 329 kts 324°
2026-05-05 16:01 33.86325 -84.61073 30071 ft 331 kts 323°
2026-05-05 16:01 33.90222 -84.64002 30068 ft 331 kts 323°
2026-05-05 16:02 33.94095 -84.66914 30060 ft 328 kts 323°
2026-05-05 16:02 33.98006 -84.69862 30058 ft 330 kts 323°
2026-05-05 16:03 34.01899 -84.72799 30071 ft 330 kts 323°
2026-05-05 16:03 34.05782 -84.75732 30058 ft 330 kts 323°
2026-05-05 16:04 34.09695 -84.78685 30074 ft 334 kts 322°
2026-05-05 16:04 34.11701 -84.80211 30064 ft 354 kts 323°
2026-05-05 16:04 34.13847 -84.81850 30058 ft 373 kts 323°
2026-05-05 16:04 34.16099 -84.83567 30052 ft 392 kts 323°
2026-05-05 16:05 34.18437 -84.85343 30052 ft 404 kts 323°
2026-05-05 16:05 34.23236 -84.88976 30056 ft 407 kts 323°
2026-05-05 16:06 34.28017 -84.92593 30043 ft 407 kts 323°
2026-05-05 16:06 34.32834 -84.96249 30042 ft 408 kts 323°
2026-05-05 16:07 34.37626 -84.99896 30040 ft 408 kts 323°
2026-05-05 16:07 34.42423 -85.03550 30028 ft 407 kts 323°
2026-05-05 16:08 34.47218 -85.07212 30032 ft 408 kts 323°
2026-05-05 16:08 34.52015 -85.10883 30036 ft 408 kts 323°
2026-05-05 16:09 34.56787 -85.14538 30023 ft 409 kts 323°
2026-05-05 16:09 34.61586 -85.18217 30016 ft 407 kts 323°
2026-05-05 16:10 34.66410 -85.21922 30013 ft 410 kts 323°
2026-05-05 16:10 34.71218 -85.25618 30012 ft 407 kts 323°
2026-05-05 16:11 34.76022 -85.29318 30018 ft 410 kts 323°
2026-05-05 16:12 34.85605 -85.36711 30023 ft 410 kts 323°
2026-05-05 16:12 34.90340 -85.40366 30023 ft 387 kts 323°
2026-05-05 16:13 34.96577 -85.45159 30024 ft 328 kts 322°
2026-05-05 16:13 34.98523 -85.46677 30032 ft 346 kts 322°
2026-05-05 16:13 35.00609 -85.48320 30013 ft 365 kts 322°
2026-05-05 16:14 35.04997 -85.51758 29379 ft 375 kts 322°
2026-05-05 16:14 35.09360 -85.55146 28485 ft 374 kts 322°
2026-05-05 16:15 35.13547 -85.58828 27889 ft 366 kts 316°
2026-05-05 16:15 35.17550 -85.62598 27371 ft 358 kts 322°
2026-05-05 16:16 35.21709 -85.65514 26861 ft 332 kts 324°
2026-05-05 16:16 35.25722 -85.68224 26357 ft 326 kts 324°
2026-05-05 16:17 35.29689 -85.70986 25846 ft 327 kts 323°
2026-05-05 16:17 35.31621 -85.72346 25593 ft 324 kts 323°
2026-05-05 16:18 35.35569 -85.75151 25093 ft 326 kts 323°
2026-05-05 16:18 35.37529 -85.76549 24842 ft 328 kts 323°
2026-05-05 16:18 35.41459 -85.79353 24338 ft 327 kts 323°
2026-05-05 16:19 35.43424 -85.80754 24085 ft 326 kts 323°
2026-05-05 16:19 35.45399 -85.82165 23834 ft 330 kts 323°
2026-05-05 16:19 35.49321 -85.84969 23336 ft 326 kts 323°
2026-05-05 16:20 35.53269 -85.87797 22833 ft 328 kts 323°
2026-05-05 16:20 35.57168 -85.90590 22338 ft 324 kts 323°
2026-05-05 16:21 35.61060 -85.93379 21847 ft 322 kts 323°
2026-05-05 16:22 35.66857 -85.97543 21107 ft 320 kts 323°
2026-05-05 16:22 35.70697 -86.00301 20620 ft 318 kts 323°
2026-05-05 16:23 35.74496 -86.03036 20134 ft 316 kts 323°
2026-05-05 16:23 35.76381 -86.04398 19894 ft 315 kts 323°
2026-05-05 16:23 35.80175 -86.07135 19400 ft 314 kts 323°
2026-05-05 16:24 35.82037 -86.08478 19158 ft 313 kts 323°
2026-05-05 16:24 35.83929 -86.09844 18910 ft 311 kts 323°
2026-05-05 16:24 35.87620 -86.12506 17793 ft 310 kts 324°
2026-05-05 16:25 35.89478 -86.13850 17138 ft 311 kts 324°
2026-05-05 16:25 35.93224 -86.16562 15814 ft 314 kts 324°
2026-05-05 16:25 35.95113 -86.17931 15146 ft 316 kts 324°
2026-05-05 16:26 35.98872 -86.20656 13963 ft 313 kts 324°
2026-05-05 16:26 36.02519 -86.23296 13216 ft 298 kts 324°
2026-05-05 16:27 36.04285 -86.24576 12875 ft 291 kts 324°
2026-05-05 16:27 36.06009 -86.25826 12540 ft 284 kts 323°
2026-05-05 16:27 36.07709 -86.27063 12201 ft 279 kts 324°
2026-05-05 16:27 36.09415 -86.28311 11866 ft 292 kts 323°
2026-05-05 16:28 36.11166 -86.29596 11516 ft 297 kts 324°
2026-05-05 16:28 36.12925 -86.30877 11165 ft 290 kts 324°
2026-05-05 16:28 36.14646 -86.32125 10823 ft 283 kts 324°
2026-05-05 16:28 36.16320 -86.33340 10490 ft 277 kts 323°
2026-05-05 16:29 36.17966 -86.34539 10165 ft 277 kts 323°
2026-05-05 16:29 36.19680 -86.35802 9823 ft 290 kts 323°
2026-05-05 16:29 36.21423 -86.37080 9470 ft 287 kts 324°
2026-05-05 16:29 36.23130 -86.38326 9125 ft 281 kts 324°
2026-05-05 16:30 36.24777 -86.39524 8794 ft 275 kts 324°
2026-05-05 16:30 36.26418 -86.40721 8466 ft 270 kts 323°
2026-05-05 16:30 36.28007 -86.41879 8145 ft 258 kts 324°
2026-05-05 16:30 36.29518 -86.42979 7839 ft 248 kts 323°
2026-05-05 16:31 36.30987 -86.44051 7541 ft 239 kts 323°
2026-05-05 16:31 36.32381 -86.45073 7270 ft 231 kts 323°
2026-05-05 16:31 36.33762 -86.46088 7135 ft 230 kts 323°
2026-05-05 16:31 36.35133 -86.47098 6959 ft 228 kts 323°
2026-05-05 16:32 36.36509 -86.48111 6752 ft 229 kts 323°
2026-05-05 16:32 36.37868 -86.49115 6473 ft 227 kts 322°
2026-05-05 16:32 36.39086 -86.50302 6177 ft 219 kts 305°
2026-05-05 16:32 36.39767 -86.51926 5898 ft 210 kts 279°
2026-05-05 16:33 36.39935 -86.53695 5621 ft 204 kts 265°
2026-05-05 16:33 36.39781 -86.55392 5396 ft 197 kts 252°
2026-05-05 16:33 36.39277 -86.56957 5275 ft 195 kts 238°
2026-05-05 16:33 36.38484 -86.58267 5156 ft 182 kts 224°
2026-05-05 16:34 36.37508 -86.59180 5042 ft 172 kts 210°
2026-05-05 16:34 36.36380 -86.59695 4890 ft 173 kts 195°
2026-05-05 16:34 36.35197 -86.59936 4672 ft 173 kts 193°
2026-05-05 16:34 36.34016 -86.60211 4468 ft 171 kts 195°
2026-05-05 16:35 36.32874 -86.60535 4272 ft 168 kts 197°
2026-05-05 16:35 36.31765 -86.60888 4095 ft 160 kts 197°
2026-05-05 16:35 36.30709 -86.61252 3956 ft 152 kts 198°
2026-05-05 16:35 36.29705 -86.61613 3948 ft 147 kts 199°
2026-05-05 16:36 36.28726 -86.61980 3953 ft 146 kts 199°
2026-05-05 16:36 36.27758 -86.62352 3954 ft 148 kts 199°
2026-05-05 16:36 36.26777 -86.62736 3937 ft 146 kts 199°
2026-05-05 16:36 36.25796 -86.63090 3720 ft 145 kts 199°
2026-05-05 16:37 36.24842 -86.63495 3334 ft 145 kts 201°
2026-05-05 16:37 36.23880 -86.63905 3079 ft 152 kts 200°
2026-05-05 16:37 36.22889 -86.64320 2639 ft 156 kts 200°
2026-05-05 16:37 36.21876 -86.64748 2297 ft 146 kts 199°
2026-05-05 16:38 36.20883 -86.65121 2241 ft 150 kts 197°
2026-05-05 16:38 36.19912 -86.65514 1836 ft 145 kts 198°
2026-05-05 16:38 36.18977 -86.65858 1535 ft 139 kts 197°
2026-05-05 16:38 36.18041 -86.66213 1570 ft 141 kts 200°
2026-05-05 16:39 36.17135 -86.66590 1397 ft 133 kts 198°
2026-05-05 16:39 36.16236 -86.66909 1176 ft 134 kts 198°
2026-05-05 16:39 36.15342 -86.67249 905 ft 135 kts 199°
2026-05-05 16:39 36.14456 -86.67593 721 ft 132 kts 199°
2026-05-05 16:40 36.13611 -86.67916 566 ft 121 kts 198°
2026-05-05 16:40 36.12937 -86.68199 569 ft 62 kts 197°
2026-05-05 16:40 36.12645 -86.68300 574 ft 57 kts 197°
2026-05-05 16:40 36.12361 -86.68415 582 ft 7 kts 230°
2026-05-05 16:41 36.12318 -86.68439 583 ft 6 kts 197°
2026-05-05 16:41 36.12271 -86.68429 584 ft 7 kts 149°
2026-05-05 16:41 36.12224 -86.68398 584 ft 8 kts 152°
2026-05-05 16:41 36.12171 -86.68362 585 ft 8 kts 143°
2026-05-05 16:42 36.12178 -86.68285 583 ft 12 kts 41°
2026-05-05 16:42 36.12271 -86.68244 580 ft 16 kts 17°
2026-05-05 16:42 36.12398 -86.68197 575 ft 21 kts 11°
2026-05-05 16:42 36.12547 -86.68144 573 ft 23 kts 14°
2026-05-05 16:43 36.12719 -86.68084 570 ft 27 kts 17°
2026-05-05 16:43 36.12908 -86.68010 567 ft 30 kts 18°
2026-05-05 16:43 36.13058 -86.67954 560 ft 11 kts 21°
2026-05-05 16:43 36.13058 -86.67883 556 ft 12 kts 131°
2026-05-05 16:44 36.12991 -86.67795 553 ft 16 kts 132°
2026-05-05 16:44 36.12888 -86.67655 546 ft 24 kts 133°
2026-05-05 16:44 36.12785 -86.67526 546 ft 16 kts 126°
2026-05-05 16:44 36.12747 -86.67404 547 ft 16 kts 66°
2026-05-05 16:45 36.12839 -86.67284 541 ft 21 kts 40°
2026-05-05 16:45 36.12956 -86.67184 540 ft 15 kts 42°
2026-05-05 16:45 36.13009 -86.67121 543 ft 7 kts 42°
2026-05-05 16:45 36.13026 -86.67094 544 ft 1 kts 68°
2026-05-05 16:46 36.13028 -86.67088 545 ft 0 kts 82°
2026-05-05 16:46 36.13028 -86.67087 545 ft 0 kts 98°
2026-05-05 16:46 36.13025 -86.67074 546 ft 5 kts 102°
2026-05-05 16:46 36.13020 -86.67059 547 ft 0 kts 115°
2026-05-05 16:47 36.13017 -86.67049 548 ft 0 kts 114°
2026-05-05 16:47 36.13014 -86.67041 549 ft 2 kts 114°
2026-05-05 16:47 36.13014 -86.67040 549 ft 0 kts 114°